Regional Weather Roundup
Issued by NWS

Home | Current Version | Previous Version | Text Only | Print | Product List | Glossary Off
Versions: 1 2 3 4 5 6 7 8 9 10 11 12 13 14 15 16 17 18 19 20 21 22 23 24 25 26 27 28 29 30 31 32 33 34 35 36 37 38 39 40 41 42 43 44 45 46 47 48 49 50

973
ASUS43 KFSD 040810
RWRSD

WEATHER ROUNDUP FOR SOUTH DAKOTA
NATIONAL WEATHER SERVICE SIOUX FALLS SD
200 AM CST SUN DEC 04 2016

NOTE: "FAIR" INDICATES FEW OR NO CLOUDS BELOW 12,000 FEET WITH NO
SIGNIFICANT WEATHER AND/OR OBSTRUCTIONS TO VISIBILITY.


SDZ001>005-009-010-012>017-040900-
NORTHWEST AND NORTH CENTRAL SOUTH DAKOTA

CITY           SKY/WX    TMP DP  RH WIND       PRES   REMARKS
BUFFALO          N/A     27  21  78 W14       29.77F WCI  16
FAITH            N/A     28  24  85 W10       29.84F WCI  19
MOBRIDGE       CLOUDY    36  31  82 NW8       29.79S
$$

SDZ012>016-024>037-041>051-057-063-072>074-040900-
SOUTHWEST AND SOUTH CENTRAL SOUTH DAKOTA

CITY           SKY/WX    TMP DP  RH WIND       PRES   REMARKS
RAPID CTY ARPT CLEAR     28  21  75 W10       29.90F WCI  19
PIERRE         CLEAR     31  24  75 SW8       29.86F WCI  23
CUSTER         CLEAR     23  15  71 W7        29.88F WCI  15
ELLSWORTH AFB  CLEAR     29  23  77 W8        29.89F WCI  21
PHILIP         PTCLDY    28  23  81 W8        29.90F WCI  20
PINE RIDGE     CLOUDY    28  20  71 NW6       29.95F WCI  22
SPEARFISH      CLOUDY    34  23  64 W12       29.90F WCI  25
WINNER         FAIR      31  23  72 W8        29.91S WCI  23
$$

SDZ004>011-016>023-039-040-040900-
NORTHEAST SOUTH DAKOTA

CITY           SKY/WX    TMP DP  RH WIND       PRES   REMARKS
ABERDEEN       MOCLDY    31  28  89 S10       29.85F WCI  22
WATERTOWN      CLOUDY    32  31  96 S14       29.87F FOG     WCI  22
BROOKINGS      CLOUDY    32  31  96 S14G21    29.91F FOG     WCI  22
SISSETON         N/A     35  32  88 S14       29.87F WCI  26
$$

SDZ017-020-022-023-036>040-048>070-040900-
SOUTHEAST SOUTH DAKOTA

CITY           SKY/WX    TMP DP  RH WIND       PRES   REMARKS
SIOUX FALLS    CLOUDY    34  33  96 S15       29.95F WCI  24
HURON          PTCLDY    30  30 100 S6        29.89F WCI  24
CHAMBERLAIN    CLEAR     28  25  87 SW5       29.90S WCI  23
MITCHELL       PTCLDY    32  30  92 S7        29.92F WCI  26
YANKTON        CLOUDY    36  30  80 S9        29.95F
$$

ABBREVIATIONS USED IN REMARKS
   TC - TEMPERATURE IN CELSIUS
  WCI - WIND CHILL INDEX
   HX - HEAT INDEX
  VSB - VISIBILITY





USA.gov is the U.S. government's official web portal to all federal, state and local government web resources and services.